Wind_Speed
1 2 3 3 3 3 3 3 3 3 3 3 4 5 6 6 6 6 5 5 5 6 6 6 7 7 7 6 6 6 6 7 7 7 7 7 7 6 7 6 6 6 6 7
2 2 3 3 3 3 3 3 3 3 3 2 3 4 5 5 5 5 5 5 5 5 5 5 6 7 7 7 7 7 7 6 6 6 6 7 7 6 6 6 6 6 6 7
3 3 3 3 3 3 3 3 3 3 3 2 3 3 4 5 5 5 5 5 5 5 6 6 6 6 6 6 6 6 6 6 6 6 6 6 6 6 6 6 7 8 8 8
3 3 3 3 3 3 3 3 3 3 3 3 4 4 5 5 5 5 5 5 6 6 7 7 6 6 7 7 7 7 6 7 7 7 7 7 7 7 7 8 8 8 8 9
3 3 2 2 2 3 3 3 3 3 3 4 4 4 5 5 5 5 5 6 6 6 7 8 8 7 8 8 8 8 8 8 8 8 8 8 8 8 9 9 9 9 9 9
3 3 3 2 2 3 3 3 3 4 4 5 5 5 6 6 6 6 7 7 7 7 7 8 8 8 8 8 9 9 9 9 9 9 9 9 9 9 10 9 9 10 10 10
4 4 3 3 3 3 3 3 4 4 5 6 6 6 6 6 6 7 7 7 7 7 8 8 8 8 9 9 9 9 10 10 10 10 10 10 9 10 10 10 10 10 10 10
6 6 5 5 5 5 5 5 5 6 6 7 7 8 7 7 7 7 7 7 8 8 8 8 8 9 9 10 10 10 10 11 11 11 10 10 11 11 11 11 11 11 11 12
7 8 8 7 7 7 7 7 7 8 8 8 9 9 9 8 8 8 8 8 8 9 9 9 9 10 10 10 10 11 11 11 11 12 12 12 12 12 12 12 12 12 13 13
8 9 9 9 9 9 8 8 8 9 9 10 10 10 10 10 9 9 9 9 10 10 10 10 10 11 11 11 11 11 12 11 11 12 12 13 13 13 13 13 13 14 14 13
9 10 10 10 10 10 10 10 10 10 11 11 11 11 11 10 10 10 10 11 11 11 11 11 11 11 12 12 12 13 13 13 12 12 13 13 14 14 14 14 14 14 15 15
10 10 11 11 11 12 12 12 11 11 12 12 12 13 12 12 11 11 11 12 12 13 13 13 13 13 12 13 14 14 14 14 14 14 14 14 15 15 15 15 15 15 16 16
11 11 12 13 13 13 13 13 13 13 13 13 14 14 13 13 13 13 13 13 13 14 14 14 14 14 14 14 15 15 15 15 15 15 15 16 16 17 17 17 17 17 17 17
13 13 14 14 15 15 14 14 14 14 14 15 14 15 15 15 15 15 15 15 15 16 16 16 15 15 15 16 16 17 17 17 17 16 17 17 17 18 18 18 18 18 18 18
15 15 16 16 16 16 16 15 15 16 16 16 16 16 16 16 16 17 17 17 17 18 18 17 17 17 17 17 18 18 18 19 19 19 19 19 19 19 19 20 20 19 19 19
17 17 16 16 16 17 17 16 17 18 18 18 18 19 19 18 18 18 18 18 19 19 19 19 19 19 19 19 20 20 21 21 21 21 21 21 21 21 21 21 21 21 21 21
18 18 18 17 17 18 18 17 18 19 19 20 20 21 21 21 20 20 20 19 20 20 20 20 20 20 20 21 21 21 22 23 23 23 22 22 23 23 23 23 22 22 22 22
19 19 19 19 19 20 19 19 20 20 21 21 21 22 22 22 21 21 21 20 20 21 21 21 21 21 22 22 22 23 23 24 24 24 24 24 24 24 24 24 24 24 24 23
19 20 20 21 22 22 21 20 21 22 22 22 22 22 22 22 22 21 21 22 22 22 22 22 22 23 23 24 24 24 24 25 25 25 25 26 26 25 25 26 25 25 24 25
20 21 22 22 23 23 22 22 22 23 23 23 23 23 23 23 23 23 23 23 23 23 23 24 24 24 24 24 25 25 26 26 26 26 26 26 26 26 26 25 25 25 26 26
21 22 22 23 24 24 24 23 23 23 24 24 24 24 23 23 24 24 25 25 25 24 24 25 25 25 25 25 26 26 26 27 27 27 27 27 27 27 27 26 27 27 28 28
23 23 24 24 25 25 25 25 25 26 26 25 25 25 25 25 26 26 26 26 26 26 25 26 26 27 27 27 27 27 28 28 28 28 28 29 29 29 28 28 29 29 30 30
25 25 26 26 27 27 27 27 27 27 27 27 26 26 27 27 27 27 27 26 27 27 27 27 28 28 28 28 28 29 29 29 30 30 30 30 30 30 30 31 31 31 31 31
26 26 27 27 28 28 28 28 28 28 28 28 28 27 27 28 28 28 28 27 27 28 28 28 29 29 30 29 29 30 31 31 32 32 32 31 31 31 31 31 32 32 32 32
27 27 28 28 28 29 29 29 28 28 28 28 28 28 28 28 27 28 28 29 29 29 29 30 30 31 31 31 31 32 32 32 33 34 33 32 32 32 32 32 33 33 33 34
27 27 28 28 29 29 29 28 29 29 29 28 28 28 29 29 29 29 29 30 30 31 31 31 32 33 33 33 33 33 34 34 34 33 33 34 33 33 33 34 34 34 34 34
Wind_Direction
173 206 219 229 233 236 247 260 267 275 276 271 275 276 274 270 263 256 248 244 247 244 251 253 257 264 266 266 264 268 272 272 269 269 272 271 270 272 271 274 276 279 280 280
231 239 240 244 243 246 257 258 249 253 253 271 280 281 272 269 265 254 247 247 246 246 258 264 268 270 269 268 267 267 271 272 267 273 272 270 270 276 278 279 278 278 281 283
267 262 251 255 247 255 261 266 260 247 263 270 298 299 286 273 268 261 254 255 258 257 256 264 274 276 276 275 274 273 273 271 273 277 278 275 277 279 279 278 281 283 287 289
272 274 262 260 252 257 257 259 256 254 272 288 300 297 293 283 274 265 259 260 262 260 259 265 270 274 272 271 271 273 273 272 272 276 277 278 277 277 279 280 283 285 288 290
271 283 277 263 258 254 253 259 261 271 274 281 282 279 279 281 276 270 267 266 264 262 262 266 267 271 271 270 269 271 271 274 276 278 278 277 275 277 282 284 285 287 287 288
265 271 266 273 276 265 264 266 270 279 278 277 275 271 272 275 273 270 270 267 264 265 267 270 270 270 271 274 274 273 271 273 274 277 278 278 277 278 284 285 287 289 291 291
261 261 260 266 273 278 273 271 276 282 276 272 273 272 272 276 275 275 274 267 263 264 266 270 271 268 268 271 275 275 273 273 274 276 276 278 278 278 282 284 284 288 290 291
260 259 261 266 270 274 274 276 271 270 272 275 273 273 275 277 277 278 276 270 262 264 267 268 270 268 268 269 271 273 273 273 274 275 275 275 277 280 284 286 285 286 288 291
262 263 265 267 268 272 273 273 278 277 277 277 276 276 275 275 276 273 271 269 266 267 267 267 268 270 269 269 269 271 275 275 274 274 276 277 278 280 283 284 285 285 286 289
263 265 266 268 267 270 273 275 276 278 277 277 277 276 275 274 273 271 269 268 268 269 269 268 267 268 269 269 270 272 274 275 277 275 276 279 279 280 280 279 283 285 284 286
266 268 269 270 269 271 275 277 277 278 277 274 276 276 274 275 273 270 269 267 267 267 267 267 267 269 268 266 268 271 272 273 275 276 276 277 280 281 279 279 281 283 283 285
269 270 270 271 272 272 275 275 275 276 277 276 275 276 275 276 276 275 272 269 269 268 267 267 270 270 269 269 270 271 272 273 273 274 276 277 278 279 279 281 282 283 284 285
271 271 272 274 274 272 271 271 272 272 274 276 276 275 276 277 276 276 273 271 269 268 266 268 268 269 269 271 272 272 272 273 272 273 274 276 276 277 278 280 281 283 284 284
270 270 269 271 272 271 270 270 270 271 273 275 276 274 275 277 278 276 273 271 269 268 268 268 268 268 269 271 272 272 271 272 272 272 274 276 276 276 277 278 280 283 284 285
270 271 270 269 270 269 269 270 270 270 271 273 274 275 276 277 277 277 274 271 270 270 269 268 267 269 270 270 271 272 271 271 272 273 273 274 275 276 278 279 280 281 283 285
269 271 271 269 268 270 271 271 271 271 273 274 275 277 277 278 278 278 277 274 271 270 270 269 268 268 270 270 270 271 271 271 272 272 273 274 274 275 277 279 279 281 282 285
269 271 271 270 269 270 270 271 272 273 274 274 275 276 278 279 278 278 278 276 272 270 269 268 268 268 270 271 272 273 273 272 272 272 273 273 275 276 277 278 280 280 281 283
269 269 270 271 271 270 272 272 273 275 275 275 276 276 277 279 279 278 279 278 276 273 270 269 269 269 270 271 273 274 275 275 274 273 272 274 276 277 278 279 280 280 280 281
268 268 269 271 272 274 274 274 275 276 277 277 277 278 278 277 278 277 278 278 278 276 273 271 271 271 272 271 272 273 274 275 275 274 274 274 275 276 278 279 280 280 281 281
266 268 270 272 274 275 276 276 275 276 276 276 278 278 277 276 277 277 277 279 279 278 275 272 272 273 273 273 273 274 274 275 276 276 275 275 274 275 275 276 278 280 281 281
266 268 270 272 274 275 276 277 277 276 277 278 278 278 276 275 277 278 278 278 278 278 277 274 272 272 273 275 276 276 276 276 275 275 275 275 275 274 273 273 276 279 281 282
267 269 270 272 273 275 275 275 276 276 276 277 277 277 277 277 278 277 278 277 277 278 278 277 275 274 275 276 277 276 275 276 276 276 276 276 276 275 273 273 275 277 280 282
266 268 270 271 273 274 275 275 276 276 275 275 277 277 278 279 279 277 277 278 277 277 277 277 276 275 276 276 277 276 275 275 276 277 277 277 276 276 274 274 276 278 280 282
267 267 269 271 272 272 273 275 275 276 276 276 276 278 279 279 279 278 277 277 277 277 277 277 276 275 274 275 277 277 276 277 276 277 278 277 275 275 275 275 275 277 279 281
269 268 269 270 271 271 272 273 274 275 276 276 276 277 278 278 279 278 278 278 277 276 276 277 277 275 275 275 276 277 277 278 277 276 276 276 276 276 276 277 277 278 279 280
269 269 270 270 271 273 273 272 274 275 276 276 277 277 279 280 279 279 280 280 279 278 278 278 278 277 276 275 275 276 277 277 277 275 276 276 276 277 278 278 278 279 280 280
Height
5863 5864 5864 5865 5865 5865 5865 5866 5866 5866 5865 5866 5865 5865 5865 5865 5865 5865 5865 5865 5865 5865 5865 5865 5865 5865 5865 5865 5864 5864 5864 5863 5863 5863 5862 5862 5862 5861 5861 5860 5860 5860 5859 5859
5863 5863 5864 5864 5864 5864 5865 5865 5865 5865 5865 5865 5864 5864 5864 5863 5864 5863 5864 5864 5864 5864 5864 5864 5864 5863 5863 5863 5863 5863 5862 5862 5862 5861 5861 5860 5860 5860 5859 5859 5858 5858 5857 5857
5862 5863 5862 5863 5863 5863 5863 5864 5864 5864 5864 5864 5864 5864 5863 5863 5863 5863 5862 5862 5862 5863 5863 5863 5862 5862 5862 5861 5861 5861 5861 5860 5860 5860 5860 5859 5858 5858 5858 5857 5857 5856 5856 5855
5861 5861 5861 5861 5861 5862 5862 5863 5863 5863 5863 5863 5864 5863 5863 5862 5861 5861 5861 5861 5861 5861 5861 5861 5861 5860 5860 5860 5860 5860 5859 5859 5859 5858 5858 5857 5857 5856 5856 5856 5855 5854 5854 5853
5860 5860 5860 5860 5861 5861 5861 5861 5861 5862 5862 5862 5862 5862 5862 5860 5860 5860 5860 5859 5859 5859 5859 5859 5859 5859 5858 5858 5858 5858 5857 5857 5857 5857 5856 5856 5855 5855 5854 5853 5853 5852 5851 5850
5860 5859 5859 5859 5859 5859 5860 5860 5860 5860 5860 5861 5861 5861 5860 5859 5859 5858 5858 5857 5857 5857 5857 5857 5857 5857 5856 5856 5856 5855 5855 5855 5855 5854 5854 5853 5853 5852 5852 5851 5850 5850 5849 5848
5858 5858 5858 5858 5858 5858 5859 5860 5860 5859 5859 5860 5859 5858 5859 5857 5857 5856 5855 5855 5855 5855 5855 5855 5855 5854 5854 5854 5854 5853 5853 5853 5853 5852 5852 5851 5850 5850 5849 5849 5848 5847 5846 5845
5856 5857 5857 5857 5857 5857 5857 5858 5859 5858 5858 5857 5856 5856 5857 5855 5854 5854 5853 5853 5853 5853 5853 5852 5852 5852 5852 5852 5852 5851 5851 5850 5850 5849 5849 5848 5848 5847 5846 5846 5845 5844 5843 5842
5854 5855 5855 5855 5855 5855 5855 5855 5856 5856 5855 5855 5854 5854 5853 5852 5852 5851 5851 5850 5850 5850 5850 5850 5850 5849 5849 5849 5849 5848 5848 5847 5847 5846 5846 5845 5845 5844 5843 5843 5842 5841 5840 5839
5852 5853 5852 5852 5852 5852 5853 5853 5853 5853 5852 5852 5852 5851 5851 5850 5849 5849 5848 5848 5847 5847 5847 5847 5846 5846 5846 5846 5845 5845 5844 5844 5843 5843 5842 5842 5841 5841 5840 5839 5838 5838 5837 5836
5849 5850 5850 5850 5850 5850 5850 5850 5849 5849 5849 5849 5849 5850 5848 5847 5846 5846 5845 5845 5844 5844 5844 5843 5843 5843 5842 5842 5842 5841 5841 5840 5840 5839 5839 5838 5837 5837 5836 5835 5835 5834 5833 5832
5846 5847 5847 5847 5847 5846 5846 5846 5846 5846 5846 5845 5845 5848 5844 5843 5842 5842 5842 5841 5841 5840 5840 5839 5839 5839 5838 5838 5838 5837 5837 5837 5836 5835 5835 5834 5833 5832 5832 5831 5830 5829 5828 5827
5843 5843 5844 5844 5845 5844 5842 5842 5842 5842 5842 5842 5842 5844 5840 5839 5839 5838 5838 5837 5837 5836 5836 5835 5835 5835 5834 5834 5834 5833 5833 5832 5832 5831 5830 5830 5829 5828 5827 5826 5825 5825 5824 5823
5839 5839 5841 5841 5839 5839 5839 5838 5838 5838 5838 5838 5838 5837 5836 5835 5834 5834 5833 5833 5832 5832 5831 5831 5830 5830 5830 5830 5829 5828 5828 5827 5826 5826 5826 5825 5824 5823 5822 5821 5820 5819 5818 5817
5835 5835 5835 5835 5834 5834 5834 5834 5834 5833 5833 5833 5833 5832 5831 5830 5830 5829 5828 5827 5827 5827 5826 5826 5825 5825 5825 5824 5824 5823 5822 5822 5821 5821 5820 5819 5819 5818 5817 5816 5815 5814 5813 5811
5830 5830 5830 5830 5830 5829 5829 5829 5829 5828 5828 5828 5827 5827 5826 5825 5824 5824 5823 5822 5821 5821 5820 5820 5820 5819 5819 5818 5818 5817 5816 5816 5815 5815 5814 5813 5812 5812 5811 5810 5809 5808 5807 5805
5824 5825 5825 5825 5825 5824 5825 5825 5824 5823 5822 5822 5822 5822 5820 5819 5818 5818 5817 5816 5815 5814 5814 5814 5813 5813 5813 5812 5811 5811 5810 5809 5809 5808 5807 5807 5806 5805 5804 5803 5802 5801 5800 5799
5819 5819 5819 5819 5820 5819 5821 5819 5818 5817 5816 5816 5815 5814 5813 5813 5812 5811 5810 5809 5808 5808 5807 5807 5807 5806 5806 5805 5804 5804 5803 5802 5801 5801 5800 5800 5799 5798 5797 5796 5795 5794 5793 5792
5813 5814 5814 5814 5813 5813 5814 5813 5812 5811 5810 5809 5808 5807 5806 5806 5805 5805 5803 5802 5802 5801 5800 5800 5800 5799 5799 5798 5797 5796 5796 5795 5794 5793 5793 5792 5791 5790 5790 5789 5788 5787 5786 5784
5807 5807 5808 5807 5806 5807 5808 5806 5805 5805 5803 5803 5801 5800 5799 5799 5799 5799 5797 5796 5795 5794 5793 5792 5792 5792 5791 5790 5789 5789 5788 5787 5786 5785 5785 5784 5783 5782 5782 5781 5780 5779 5778 5777
5801 5801 5801 5800 5799 5799 5800 5799 5798 5799 5798 5795 5794 5793 5792 5791 5791 5791 5790 5788 5787 5786 5785 5784 5784 5784 5783 5782 5782 5781 5780 5779 5778 5777 5776 5775 5774 5774 5773 5773 5772 5771 5769 5768
5794 5794 5794 5793 5793 5794 5792 5791 5791 5790 5788 5787 5786 5785 5785 5784 5783 5783 5782 5781 5780 5779 5778 5777 5776 5775 5775 5774 5773 5773 5772 5771 5769 5769 5768 5767 5766 5765 5764 5764 5763 5762 5761 5759
5787 5787 5786 5787 5787 5785 5783 5782 5782 5781 5780 5779 5778 5777 5777 5776 5775 5774 5774 5773 5772 5771 5770 5768 5767 5767 5766 5765 5764 5764 5763 5762 5761 5760 5759 5757 5756 5755 5755 5754 5753 5752 5751 5750
5779 5779 5778 5777 5777 5776 5775 5774 5773 5772 5771 5771 5770 5769 5768 5768 5767 5766 5765 5764 5763 5762 5761 5760 5759 5758 5757 5756 5755 5754 5753 5752 5751 5750 5749 5747 5746 5745 5745 5744 5743 5742 5741 5740
5771 5770 5769 5768 5768 5767 5766 5766 5765 5764 5763 5762 5762 5761 5760 5759 5758 5757 5756 5755 5754 5753 5752 5750 5749 5748 5747 5746 5745 5744 5743 5742 5740 5739 5738 5737 5736 5735 5734 5733 5733 5732 5731 5729
5762 5761 5760 5760 5759 5758 5758 5757 5756 5755 5755 5754 5753 5752 5751 5750 5748 5748 5747 5745 5744 5743 5742 5741 5739 5738 5737 5736 5734 5733 5732 5731 5729 5728 5728 5727 5726 5725 5724 5723 5722 5721 5720 5718